| time (UTC) | temp C | wind direction | speed KPH | gust KPH | rain 1hr cm | rain 24hr cm | rain mn cm | humidity % | barometer mb |
| 20260906023705 | 12 | 255 | 6.4 | 14.5 | 0.00 | 0.05 | 0.00 | 86 | 1023.5 |
| 20260906023212 | 12 | 323 | 6.4 | 12.9 | 0.00 | 0.05 | 0.00 | 86 | 1023.7 |
| 20260906023205 | 12 | 257 | 8.0 | 12.9 | 0.00 | 0.05 | 0.00 | 86 | 1023.5 |
| 20260906022704 | 12 | 264 | 6.4 | 19.3 | 0.00 | 0.05 | 0.00 | 86 | 1023.5 |
| 20260906022212 | 12 | 311 | 4.8 | 11.3 | 0.00 | 0.05 | 0.00 | 86 | 1023.7 |
| 20260906022204 | 12 | 289 | 4.8 | 11.3 | 0.00 | 0.05 | 0.00 | 86 | 1023.5 |
| 20260906021212 | 12 | 275 | 6.4 | 9.7 | 0.00 | 0.05 | 0.00 | 85 | 1023.6 |
| 20260906021204 | 12 | 299 | 4.8 | 9.7 | 0.00 | 0.05 | 0.00 | 85 | 1023.4 |
| 20260906015704 | 12 | 255 | 4.8 | 11.3 | 0.00 | 0.05 | 0.00 | 85 | 1023.3 |
| 20260906015212 | 12 | 279 | 4.8 | 9.7 | 0.00 | 0.05 | 0.00 | 85 | 1023.5 |
| 20260906015205 | 12 | 279 | 4.8 | 9.7 | 0.00 | 0.05 | 0.00 | 85 | 1023.3 |
| 20260906014212 | 12 | 276 | 4.8 | 9.7 | 0.00 | 0.05 | 0.00 | 85 | 1023.4 |
| 20260906014205 | 12 | 279 | 4.8 | 9.7 | 0.00 | 0.05 | 0.00 | 85 | 1023.2 |
| 20260906013705 | 12 | 293 | 3.2 | 9.7 | 0.00 | 0.05 | 0.00 | 85 | 1023.2 |
| 20260906013212 | 12 | 235 | 4.8 | 11.3 | 0.00 | 0.05 | 0.00 | 85 | 1023.4 |
| 20260906013205 | 12 | 263 | 3.2 | 11.3 | 0.00 | 0.05 | 0.00 | 84 | 1023.1 |
| 20260906012705 | 12 | 273 | 3.2 | 9.7 | 0.00 | 0.05 | 0.00 | 84 | 1023.1 |
| 20260906012212 | 12 | 248 | 3.2 | 11.3 | 0.00 | 0.05 | 0.00 | 84 | 1023.3 |
| 20260906012205 | 12 | 259 | 3.2 | 11.3 | 0.00 | 0.05 | 0.00 | 84 | 1023.1 |
| 20260906011705 | 12 | 229 | 4.8 | 12.9 | 0.00 | 0.05 | 0.00 | 84 | 1023.1 |
| 20260906011212 | 12 | 240 | 4.8 | 11.3 | 0.00 | 0.05 | 0.00 | 84 | 1023.2 |
| 20260906011204 | 12 | 246 | 4.8 | 11.3 | 0.00 | 0.05 | 0.00 | 84 | 1023.0 |
| 20260906010705 | 12 | 249 | 4.8 | 12.9 | 0.00 | 0.05 | 0.00 | 84 | 1023.0 |
| 20260906010212 | 12 | 213 | 8.0 | 12.9 | 0.00 | 0.05 | 0.00 | 84 | 1023.2 |
| 20260906010204 | 12 | 240 | 8.0 | 12.9 | 0.00 | 0.05 | 0.00 | 84 | 1023.0 |
| 20260906005705 | 12 | 259 | 4.8 | 14.5 | 0.00 | 0.05 | 0.00 | 84 | 1022.9 |
| 20260906005212 | 12 | 220 | 6.4 | 12.9 | 0.00 | 0.05 | 0.00 | 84 | 1023.1 |
| 20260906005204 | 12 | 256 | 8.0 | 12.9 | 0.00 | 0.05 | 0.00 | 84 | 1022.9 |
| 20260906004705 | 12 | 245 | 4.8 | 8.0 | 0.00 | 0.05 | 0.00 | 84 | 1022.9 |
| 20260906003705 | 13 | 277 | 3.2 | 8.0 | 0.00 | 0.05 | 0.00 | 83 | 1022.9 |
| 20260906002705 | 13 | 231 | 4.8 | 8.0 | 0.00 | 0.05 | 0.00 | 82 | 1022.9 |
| 20260906002212 | 13 | 253 | 4.8 | 12.9 | 0.00 | 0.05 | 0.00 | 82 | 1023.1 |
| 20260906002205 | 13 | 243 | 3.2 | 9.7 | 0.00 | 0.05 | 0.00 | 82 | 1022.9 |
| 20260906001704 | 13 | 268 | 4.8 | 12.9 | 0.00 | 0.05 | 0.00 | 81 | 1022.9 |
| 20260906001212 | 13 | 240 | 6.4 | 12.9 | 0.00 | 0.05 | 0.00 | 81 | 1023.0 |
| 20260906001204 | 13 | 238 | 4.8 | 12.9 | 0.00 | 0.05 | 0.00 | 81 | 1022.8 |
| 20260906000704 | 13 | 266 | 8.0 | 19.3 | 0.00 | 0.05 | 0.00 | 82 | 1022.8 |
| 20260906000212 | 13 | 249 | 6.4 | 14.5 | 0.00 | 0.05 | 0.00 | 82 | 1022.9 |
| 20260906000204 | 13 | 258 | 6.4 | 14.5 | 0.00 | 0.05 | 0.00 | 82 | 1022.7 |
| 20260905235212 | 13 | 244 | 4.8 | 17.7 | 0.00 | 0.05 | 0.00 | 82 | 1023.0 |
| 20260905235205 | 13 | 255 | 3.2 | 19.3 | 0.00 | 0.05 | 0.00 | 82 | 1022.7 |
| 20260905234704 | 13 | 257 | 4.8 | 11.3 | 0.00 | 0.05 | 0.00 | 82 | 1022.7 |
| 20260905234212 | 13 | 299 | 3.2 | 9.7 | 0.00 | 0.05 | 0.00 | 81 | 1022.9 |
| 20260905234204 | 13 | 307 | 3.2 | 9.7 | 0.00 | 0.05 | 0.00 | 81 | 1022.7 |
| 20260905233705 | 13 | 252 | 3.2 | 9.7 | 0.00 | 0.05 | 0.00 | 80 | 1022.7 |
| 20260905233212 | 14 | 249 | 4.8 | 11.3 | 0.00 | 0.05 | 0.00 | 79 | 1023.0 |
| 20260905233204 | 13 | 258 | 4.8 | 11.3 | 0.00 | 0.05 | 0.00 | 79 | 1022.7 |
| 20260905232704 | 14 | 309 | 3.2 | 9.7 | 0.00 | 0.05 | 0.00 | 79 | 1022.6 |
| 20260905232212 | 14 | 253 | 6.4 | 12.9 | 0.00 | 0.05 | 0.00 | 78 | 1022.9 |
| 20260905232204 | 14 | 249 | 6.4 | 12.9 | 0.00 | 0.05 | 0.00 | 78 | 1022.5 |
| 20260905231212 | 14 | 253 | 9.7 | 19.3 | 0.00 | 0.05 | 0.00 | 77 | 1022.7 |
| 20260905231204 | 14 | 267 | 9.7 | 19.3 | 0.00 | 0.05 | 0.00 | 77 | 1022.4 |
| 20260905230704 | 14 | 283 | 6.4 | 12.9 | 0.00 | 0.05 | 0.00 | 78 | 1022.4 |
| 20260905230212 | 14 | 15 | 4.8 | 29.0 | 0.00 | 0.05 | 0.00 | 77 | 1022.5 |
| 20260905230204 | 14 | 245 | 4.8 | 29.0 | 0.00 | 0.08 | 0.00 | 77 | 1022.3 |
| 20260905225705 | 14 | 299 | 9.7 | 20.9 | 0.00 | 0.08 | 0.00 | 78 | 1022.3 |
| 20260905224212 | 13 | 311 | 8.0 | 12.9 | 0.00 | 0.08 | 0.00 | 81 | 1022.4 |
| 20260905224204 | 13 | 284 | 8.0 | 12.9 | 0.00 | 0.13 | 0.00 | 81 | 1022.2 |
| 20260905223704 | 13 | 287 | 4.8 | 11.3 | 0.00 | 0.20 | 0.00 | 81 | 1022.1 |
| 20260905223212 | 14 | 257 | 4.8 | 20.9 | 0.00 | 0.08 | 0.00 | 81 | 1022.3 |
| 20260905223204 | 14 | 283 | 6.4 | 20.9 | 0.00 | 0.20 | 0.00 | 81 | 1022.1 |
| 20260905222704 | 14 | 259 | 4.8 | 9.7 | 0.00 | 0.20 | 0.00 | 80 | 1022.0 |
| 20260905222212 | 14 | 243 | 3.2 | 8.0 | 0.00 | 0.08 | 0.00 | 80 | 1022.2 |
| 20260905222204 | 14 | 235 | 4.8 | 8.0 | 0.00 | 0.20 | 0.00 | 80 | 1022.0 |
| 20260905221705 | 14 | 275 | 4.8 | 11.3 | 0.00 | 0.20 | 0.00 | 80 | 1022.0 |
| 20260905221212 | 15 | 231 | 4.8 | 16.1 | 0.00 | 0.08 | 0.00 | 79 | 1022.2 |
| 20260905221204 | 15 | 245 | 4.8 | 16.1 | 0.00 | 0.23 | 0.00 | 79 | 1021.9 |
| 20260905220704 | 15 | 252 | 3.2 | 11.3 | 0.00 | 0.25 | 0.00 | 78 | 1021.9 |
| 20260905220212 | 15 | 262 | 1.6 | 9.7 | 0.00 | 0.08 | 0.00 | 78 | 1022.2 |
| 20260905220204 | 15 | 289 | 3.2 | 9.7 | 0.00 | 0.28 | 0.00 | 77 | 1021.9 |
| 20260905215705 | 15 | 226 | 3.2 | 9.7 | 0.00 | 0.28 | 0.28 | 77 | 1021.9 |
| 20260905214704 | 15 | 286 | 9.7 | 19.3 | 0.00 | 0.30 | 0.28 | 77 | 1021.8 |
| 20260905214212 | 15 | 272 | 8.0 | 22.5 | 0.00 | 0.28 | 0.28 | 77 | 1022.1 |
| 20260905214205 | 15 | 274 | 9.7 | 22.5 | 0.00 | 0.33 | 0.28 | 77 | 1021.8 |
| 20260905213704 | 15 | 279 | 6.4 | 14.5 | 0.00 | 0.33 | 0.28 | 78 | 1021.7 |
| 20260905212704 | 14 | 292 | 8.0 | 11.3 | 0.00 | 0.33 | 0.28 | 79 | 1021.7 |
| 20260905212212 | 14 | 304 | 4.8 | 9.7 | 0.00 | 0.28 | 0.28 | 79 | 1021.9 |
| 20260905212205 | 14 | 269 | 4.8 | 9.7 | 0.00 | 0.33 | 0.28 | 79 | 1021.6 |
| 20260905211704 | 14 | 245 | 3.2 | 16.1 | 0.00 | 0.33 | 0.28 | 79 | 1021.5 |
| 20260905211212 | 14 | 246 | 3.2 | 11.3 | 0.00 | 0.28 | 0.28 | 80 | 1021.8 |
| 20260905211205 | 14 | 241 | 3.2 | 11.3 | 0.00 | 0.36 | 0.28 | 80 | 1021.5 |
| 20260905210704 | 14 | 261 | 3.2 | 4.8 | 0.00 | 0.38 | 0.28 | 79 | 1021.6 |
| 20260905210212 | 14 | 263 | 4.8 | 9.7 | 0.00 | 0.28 | 0.28 | 79 | 1021.9 |
| 20260905210204 | 14 | 263 | 4.8 | 9.7 | 0.00 | 0.43 | 0.28 | 79 | 1021.6 |
| 20260905205212 | 14 | 286 | 4.8 | 9.7 | 0.00 | 0.43 | 0.28 | 79 | 1021.7 |
| 20260905205204 | 14 | 278 | 3.2 | 9.7 | 0.00 | 0.48 | 0.28 | 79 | 1021.5 |
| 20260905204704 | 14 | 244 | 1.6 | 9.7 | 0.00 | 0.56 | 0.28 | 79 | 1021.6 |
| 20260905204212 | 15 | 254 | 3.2 | 9.7 | 0.00 | 0.43 | 0.28 | 79 | 1021.9 |
| 20260905204204 | 15 | 244 | 3.2 | 9.7 | 0.00 | 0.61 | 0.28 | 78 | 1021.6 |
| 20260905203704 | 15 | 288 | 4.8 | 8.0 | 0.00 | 0.64 | 0.28 | 78 | 1021.6 |
| 20260905203212 | 15 | 323 | 6.4 | 12.9 | 0.00 | 0.43 | 0.28 | 77 | 1022.0 |
| 20260905203204 | 15 | 320 | 6.4 | 12.9 | 0.00 | 0.69 | 0.28 | 77 | 1021.7 |
| 20260905202704 | 15 | 316 | 6.4 | 9.7 | 0.00 | 0.71 | 0.28 | 77 | 1021.4 |
| 20260905202212 | 15 | 286 | 3.2 | 9.7 | 0.00 | 0.43 | 0.28 | 77 | 1021.6 |
| 20260905202204 | 15 | 286 | 4.8 | 12.9 | 0.00 | 0.74 | 0.28 | 76 | 1021.3 |
| 20260905201212 | 15 | 325 | 6.4 | 11.3 | 0.00 | 0.43 | 0.28 | 76 | 1021.7 |
| 20260905201204 | 15 | 293 | 6.4 | 11.3 | 0.00 | 0.79 | 0.28 | 76 | 1021.4 |
| 20260905200703 | 15 | 304 | 6.4 | 11.3 | 0.00 | 0.84 | 0.28 | 75 | 1021.1 |
| 20260905195704 | 15 | 293 | 8.0 | 19.3 | 0.00 | 0.89 | 0.28 | 74 | 1021.0 |
| 20260905195212 | 15 | 272 | 8.0 | 27.4 | 0.00 | 0.89 | 0.28 | 74 | 1021.2 |
| 20260905195204 | 15 | 296 | 9.7 | 27.4 | 0.00 | 0.97 | 0.28 | 74 | 1020.9 |
| 20260905194705 | 15 | 270 | 11.3 | 20.9 | 0.00 | 0.97 | 0.28 | 74 | 1020.8 |
| 20260905194212 | 15 | 276 | 8.0 | 19.3 | 0.00 | 0.89 | 0.28 | 74 | 1021.1 |
| 20260905194203 | 15 | 280 | 8.0 | 19.3 | 0.00 | 0.97 | 0.28 | 74 | 1020.8 |
| 20260905193703 | 15 | 321 | 11.3 | 20.9 | 0.00 | 0.97 | 0.28 | 74 | 1020.7 |
| 20260905193212 | 15 | 256 | 11.3 | 20.9 | 0.00 | 0.89 | 0.28 | 74 | 1020.9 |
| 20260905193204 | 15 | 296 | 11.3 | 20.9 | 0.00 | 0.97 | 0.28 | 74 | 1020.6 |
| 20260905192705 | 15 | 289 | 9.7 | 19.3 | 0.00 | 0.97 | 0.28 | 74 | 1020.6 |
| 20260905192212 | 15 | 263 | 11.3 | 20.9 | 0.00 | 0.89 | 0.28 | 74 | 1020.9 |
| 20260905192204 | 15 | 283 | 11.3 | 22.5 | 0.00 | 0.97 | 0.28 | 74 | 1020.6 |
| 20260905191704 | 15 | 281 | 8.0 | 19.3 | 0.00 | 0.97 | 0.28 | 74 | 1020.6 |
| 20260905190704 | 15 | 284 | 9.7 | 20.9 | 0.00 | 0.99 | 0.28 | 74 | 1020.6 |
| 20260905190212 | 15 | 324 | 11.3 | 20.9 | 0.00 | 0.89 | 0.28 | 75 | 1020.7 |
| 20260905190204 | 15 | 289 | 9.7 | 20.9 | 0.00 | 0.99 | 0.28 | 75 | 1020.5 |
| 20260905185704 | 15 | 290 | 9.7 | 19.3 | 0.00 | 0.99 | 0.28 | 75 | 1020.5 |
| 20260905185212 | 15 | 344 | 12.9 | 25.7 | 0.03 | 0.99 | 0.28 | 75 | 1020.6 |
| 20260905185204 | 15 | 277 | 12.9 | 25.7 | 0.03 | 0.99 | 0.28 | 75 | 1020.4 |
| 20260905184703 | 15 | 251 | 11.3 | 32.2 | 0.03 | 0.99 | 0.28 | 76 | 1020.4 |
| 20260905183704 | 15 | 281 | 19.3 | 32.2 | 0.03 | 0.99 | 0.28 | 76 | 1020.3 |
| 20260905183212 | 15 | 271 | 14.5 | 30.6 | 0.03 | 0.99 | 0.28 | 77 | 1020.5 |
| 20260905183203 | 15 | 297 | 12.9 | 29.0 | 0.03 | 0.99 | 0.28 | 77 | 1020.3 |
| 20260905182704 | 15 | 262 | 9.7 | 22.5 | 0.03 | 0.99 | 0.28 | 78 | 1020.3 |
| 20260905181703 | 15 | 272 | 8.0 | 20.9 | 0.03 | 0.99 | 0.28 | 78 | 1020.2 |
| 20260905181212 | 15 | 271 | 8.0 | 19.3 | 0.03 | 0.99 | 0.28 | 78 | 1020.3 |
| 20260905181204 | 15 | 301 | 8.0 | 19.3 | 0.03 | 0.99 | 0.28 | 78 | 1020.2 |
| 20260905180704 | 15 | 292 | 8.0 | 19.3 | 0.03 | 0.99 | 0.28 | 77 | 1019.9 |
| 20260905175212 | 16 | 272 | 11.3 | 19.3 | 0.00 | 0.99 | 0.25 | 75 | 1020.1 |
| 20260905175204 | 16 | 299 | 9.7 | 19.3 | 0.00 | 0.99 | 0.25 | 74 | 1020.0 |
| 20260905174704 | 16 | 302 | 9.7 | 19.3 | 0.00 | 0.99 | 0.25 | 74 | 1019.7 |
| 20260905174212 | 16 | 322 | 6.4 | 11.3 | 0.00 | 0.99 | 0.25 | 73 | 1019.7 |
| 20260905174205 | 16 | 285 | 6.4 | 11.3 | 0.00 | 0.99 | 0.25 | 73 | 1019.5 |
| 20260905173704 | 17 | 308 | 8.0 | 14.5 | 0.00 | 0.99 | 0.25 | 71 | 1019.6 |
| 20260905173212 | 17 | 337 | 12.9 | 20.9 | 0.00 | 0.99 | 0.25 | 68 | 1019.7 |
| 20260905173204 | 17 | 309 | 12.9 | 20.9 | 0.00 | 0.99 | 0.25 | 68 | 1019.5 |
| 20260905172703 | 17 | 301 | 11.3 | 22.5 | 0.00 | 0.99 | 0.25 | 66 | 1019.3 |
| 20260905172212 | 17 | 329 | 11.3 | 17.7 | 0.00 | 0.99 | 0.25 | 64 | 1019.3 |
| 20260905172204 | 17 | 294 | 11.3 | 19.3 | 0.00 | 0.99 | 0.25 | 64 | 1019.1 |
| 20260905171704 | 18 | 327 | 16.1 | 25.7 | 0.00 | 0.99 | 0.25 | 61 | 1019.2 |
| 20260905171212 | 18 | 292 | 17.7 | 24.1 | 0.00 | 0.99 | 0.25 | 59 | 1019.3 |
| 20260905171204 | 18 | 283 | 16.1 | 24.1 | 0.00 | 0.99 | 0.25 | 59 | 1019.0 |
| 20260905170704 | 18 | 302 | 14.5 | 27.4 | 0.00 | 1.02 | 0.25 | 59 | 1018.9 |
| 20260905170211 | 18 | 336 | 16.1 | 30.6 | 0.00 | 0.99 | 0.25 | 58 | 1018.9 |
| 20260905170203 | 18 | 275 | 11.3 | 22.5 | 0.00 | 1.07 | 0.25 | 59 | 1018.6 |
| 20260905165703 | 18 | 266 | 16.1 | 32.2 | 0.00 | 1.07 | 0.25 | 59 | 1018.5 |
| 20260905165211 | 18 | 230 | 9.7 | 20.9 | 0.00 | 1.07 | 0.25 | 59 | 1018.7 |
| 20260905165205 | 18 | 260 | 11.3 | 20.9 | 0.00 | 1.07 | 0.25 | 59 | 1018.4 |
| 20260905164706 | 18 | 311 | 8.0 | 20.9 | 0.00 | 1.07 | 0.25 | 58 | 1018.3 |
| 20260905164211 | 18 | 248 | 16.1 | 30.6 | 0.00 | 1.07 | 0.25 | 58 | 1018.6 |
| 20260905164206 | 18 | 275 | 19.3 | 32.2 | 0.00 | 1.07 | 0.25 | 58 | 1018.3 |
| 20260905163706 | 18 | 273 | 9.7 | 19.3 | 0.00 | 1.07 | 0.25 | 58 | 1018.2 |
| 20260905163212 | 18 | 307 | 9.7 | 24.1 | 0.00 | 1.07 | 0.25 | 57 | 1018.4 |
| 20260905163206 | 18 | 260 | 9.7 | 19.3 | 0.00 | 1.07 | 0.25 | 57 | 1018.1 |
| 20260905162705 | 18 | 259 | 14.5 | 27.4 | 0.00 | 1.07 | 0.25 | 56 | 1018.1 |
| 20260905162211 | 19 | 248 | 14.5 | 25.7 | 0.00 | 1.07 | 0.25 | 56 | 1018.2 |
| 20260905162205 | 19 | 263 | 11.3 | 25.7 | 0.00 | 1.07 | 0.25 | 56 | 1017.9 |
| 20260905161706 | 19 | 297 | 11.3 | 32.2 | 0.00 | 1.07 | 0.25 | 55 | 1017.8 |
| 20260905161211 | 19 | 274 | 16.1 | 30.6 | 0.00 | 1.07 | 0.25 | 55 | 1018.0 |
| 20260905161205 | 19 | 267 | 14.5 | 32.2 | 0.00 | 1.07 | 0.25 | 56 | 1017.8 |
| 20260905160706 | 19 | 289 | 9.7 | 22.5 | 0.00 | 1.07 | 0.25 | 55 | 1017.7 |
| 20260905160211 | 20 | 243 | 4.8 | 22.5 | 0.00 | 1.07 | 0.25 | 55 | 1018.0 |
| 20260905160205 | 20 | 266 | 4.8 | 19.3 | 0.00 | 1.07 | 0.25 | 55 | 1017.6 |
| 20260905155705 | 20 | 272 | 11.3 | 22.5 | 0.00 | 1.07 | 0.25 | 55 | 1017.6 |
| 20260905155212 | 20 | 288 | 9.7 | 33.8 | 0.00 | 1.07 | 0.25 | 54 | 1017.9 |
| 20260905155205 | 20 | 255 | 9.7 | 33.8 | 0.00 | 1.07 | 0.25 | 54 | 1017.6 |
| 20260905154706 | 20 | 255 | 14.5 | 33.8 | 0.00 | 1.07 | 0.25 | 54 | 1017.5 |
| 20260905154211 | 20 | 260 | 16.1 | 30.6 | 0.00 | 1.07 | 0.25 | 55 | 1018.0 |
| 20260905154205 | 20 | 293 | 16.1 | 32.2 | 0.00 | 1.07 | 0.25 | 55 | 1017.6 |
| 20260905153705 | 19 | 258 | 11.3 | 29.0 | 0.00 | 1.07 | 0.25 | 55 | 1017.5 |
| 20260905152705 | 19 | 261 | 17.7 | 32.2 | 0.00 | 1.07 | 0.25 | 54 | 1017.5 |
| 20260905151705 | 19 | 249 | 11.3 | 29.0 | 0.00 | 1.07 | 0.25 | 55 | 1017.4 |
| 20260905151211 | 20 | 342 | 9.7 | 32.2 | 0.00 | 1.07 | 0.25 | 55 | 1017.8 |
| 20260905151205 | 20 | 269 | 12.9 | 32.2 | 0.00 | 1.07 | 0.25 | 55 | 1017.4 |
| 20260905150706 | 20 | 260 | 12.9 | 33.8 | 0.00 | 1.07 | 0.25 | 54 | 1017.3 |
| 20260905145706 | 20 | 259 | 9.7 | 22.5 | 0.00 | 1.07 | 0.25 | 56 | 1017.2 |
| 20260905145211 | 19 | 254 | 11.3 | 32.2 | 0.00 | 1.07 | 0.25 | 55 | 1017.7 |
| 20260905145205 | 19 | 263 | 14.5 | 27.4 | 0.00 | 1.07 | 0.25 | 55 | 1017.2 |
| 20260905144705 | 19 | 278 | 9.7 | 27.4 | 0.00 | 1.07 | 0.25 | 56 | 1017.3 |
| 20260905144211 | 19 | 309 | 12.9 | 29.0 | 0.00 | 1.07 | 0.25 | 56 | 1017.8 |
| 20260905144205 | 19 | 263 | 14.5 | 29.0 | 0.00 | 1.07 | 0.25 | 56 | 1017.4 |
| 20260905143705 | 20 | 291 | 12.9 | 22.5 | 0.00 | 1.07 | 0.25 | 56 | 1017.4 |
| 20260905143211 | 20 | 255 | 11.3 | 22.5 | 0.00 | 1.07 | 0.25 | 54 | 1017.8 |
| 20260905143205 | 20 | 264 | 11.3 | 22.5 | 0.00 | 1.07 | 0.25 | 54 | 1017.4 |
| 20260905142706 | 20 | 246 | 9.7 | 32.2 | 0.00 | 1.07 | 0.25 | 54 | 1017.4 |
| 20260905141705 | 20 | 235 | 11.3 | 24.1 | 0.00 | 1.07 | 0.25 | 54 | 1017.3 |
| 20260905141211 | 20 | 294 | 12.9 | 33.8 | 0.00 | 1.07 | 0.25 | 53 | 1017.8 |
| 20260905141206 | 20 | 285 | 14.5 | 33.8 | 0.00 | 1.07 | 0.25 | 53 | 1017.4 |
| 20260905140706 | 20 | 252 | 12.9 | 32.2 | 0.00 | 1.07 | 0.25 | 53 | 1017.4 |
| 20260905140211 | 20 | 275 | 14.5 | 32.2 | 0.00 | 1.07 | 0.25 | 53 | 1017.9 |
| 20260905140206 | 20 | 280 | 12.9 | 32.2 | 0.00 | 1.07 | 0.25 | 53 | 1017.4 |
| 20260905135211 | 20 | 232 | 17.7 | 30.6 | 0.00 | 1.07 | 0.25 | 52 | 1017.6 |
| 20260905135205 | 20 | 228 | 17.7 | 32.2 | 0.00 | 1.07 | 0.25 | 53 | 1017.3 |
| 20260905134705 | 20 | 285 | 12.9 | 32.2 | 0.00 | 1.07 | 0.25 | 54 | 1017.3 |
| 20260905134211 | 20 | 267 | 8.0 | 27.4 | 0.00 | 1.07 | 0.25 | 54 | 1017.7 |
| 20260905134205 | 20 | 244 | 9.7 | 27.4 | 0.00 | 1.07 | 0.25 | 54 | 1017.3 |
| 20260905133705 | 20 | 248 | 14.5 | 27.4 | 0.00 | 1.07 | 0.25 | 55 | 1017.3 |
| 20260905133211 | 20 | 248 | 8.0 | 27.4 | 0.00 | 1.07 | 0.25 | 55 | 1017.8 |
| 20260905133205 | 20 | 236 | 8.0 | 27.4 | 0.00 | 1.07 | 0.25 | 55 | 1017.2 |
| 20260905132705 | 20 | 227 | 9.7 | 27.4 | 0.00 | 1.07 | 0.25 | 56 | 1017.2 |
| 20260905132211 | 20 | 202 | 12.9 | 32.2 | 0.00 | 1.07 | 0.25 | 55 | 1017.6 |
| 20260905132206 | 20 | 230 | 11.3 | 32.2 | 0.00 | 1.07 | 0.25 | 55 | 1017.1 |
| 20260905131706 | 20 | 254 | 12.9 | 32.2 | 0.00 | 1.07 | 0.25 | 56 | 1017.2 |
| 20260905131211 | 19 | 313 | 11.3 | 32.2 | 0.00 | 1.07 | 0.25 | 58 | 1017.7 |
| 20260905131205 | 19 | 255 | 9.7 | 32.2 | 0.00 | 1.07 | 0.25 | 58 | 1017.3 |
| 20260905130705 | 19 | 223 | 11.3 | 27.4 | 0.00 | 1.07 | 0.25 | 58 | 1017.2 |
| 20260905130211 | 20 | 243 | 12.9 | 22.5 | 0.00 | 1.07 | 0.25 | 57 | 1017.7 |
| 20260905130205 | 20 | 252 | 11.3 | 22.5 | 0.00 | 1.07 | 0.25 | 57 | 1017.2 |
| 20260905125705 | 20 | 232 | 11.3 | 22.5 | 0.00 | 1.07 | 0.25 | 56 | 1017.2 |
| 20260905125211 | 20 | 165 | 8.0 | 27.4 | 0.00 | 1.07 | 0.25 | 56 | 1017.6 |
| 20260905125205 | 20 | 236 | 9.7 | 24.1 | 0.00 | 1.07 | 0.25 | 57 | 1017.2 |
| 20260905124211 | 20 | 277 | 12.9 | 29.0 | 0.00 | 1.07 | 0.25 | 56 | 1017.5 |
| 20260905124206 | 20 | 259 | 11.3 | 29.0 | 0.00 | 1.07 | 0.25 | 56 | 1017.1 |
| 20260905123705 | 20 | 284 | 9.7 | 24.1 | 0.00 | 1.07 | 0.25 | 58 | 1017.1 |
| 20260905123217 | 19 | 169 | 9.7 | 22.5 | 0.00 | 1.07 | 0.25 | 58 | 1017.5 |
| 20260905123205 | 19 | 278 | 9.7 | 22.5 | 0.00 | 1.07 | 0.25 | 58 | 1017.1 |
| 20260905122705 | 19 | 245 | 9.7 | 24.1 | 0.00 | 1.07 | 0.25 | 59 | 1017.1 |
| 20260905122211 | 19 | 225 | 12.9 | 32.2 | 0.00 | 1.07 | 0.25 | 58 | 1017.6 |
| 20260905122205 | 19 | 253 | 12.9 | 32.2 | 0.00 | 1.07 | 0.25 | 58 | 1017.2 |
| 20260905121706 | 19 | 267 | 11.3 | 33.8 | 0.00 | 1.07 | 0.25 | 59 | 1017.3 |
| 20260905121211 | 18 | 233 | 14.5 | 33.8 | 0.00 | 1.07 | 0.25 | 60 | 1017.8 |
| 20260905121205 | 18 | 232 | 9.7 | 33.8 | 0.00 | 1.07 | 0.25 | 60 | 1017.4 |
| 20260905120704 | 18 | 299 | 11.3 | 24.1 | 0.00 | 1.07 | 0.25 | 60 | 1017.3 |
| 20260905120211 | 18 | 256 | 12.9 | 29.0 | 0.00 | 1.07 | 0.25 | 59 | 1017.8 |
| 20260905120205 | 18 | 257 | 11.3 | 27.4 | 0.00 | 1.07 | 0.25 | 59 | 1017.4 |
| 20260905115705 | 18 | 260 | 11.3 | 32.2 | 0.00 | 1.07 | 0.25 | 58 | 1017.3 |
| 20260905115211 | 18 | 242 | 12.9 | 27.4 | 0.00 | 1.07 | 0.25 | 58 | 1017.8 |
| 20260905115205 | 18 | 236 | 11.3 | 27.4 | 0.00 | 1.07 | 0.25 | 59 | 1017.4 |
| 20260905114705 | 18 | 239 | 8.0 | 35.4 | 0.00 | 1.07 | 0.25 | 59 | 1017.2 |
| 20260905114211 | 18 | 228 | 9.7 | 27.4 | 0.00 | 1.07 | 0.25 | 61 | 1017.9 |
| 20260905114205 | 18 | 255 | 11.3 | 27.4 | 0.00 | 1.07 | 0.25 | 61 | 1017.4 |
| 20260905113705 | 18 | 242 | 16.1 | 33.8 | 0.00 | 1.07 | 0.25 | 60 | 1017.4 |
| 20260905113211 | 18 | 275 | 9.7 | 38.6 | 0.00 | 1.07 | 0.25 | 60 | 1018.0 |
| 20260905113205 | 18 | 249 | 11.3 | 25.7 | 0.00 | 1.07 | 0.25 | 60 | 1017.6 |
| 20260905112705 | 18 | 229 | 16.1 | 38.6 | 0.00 | 1.07 | 0.25 | 59 | 1017.6 |
| 20260905112211 | 18 | 188 | 9.7 | 29.0 | 0.00 | 1.07 | 0.25 | 61 | 1017.9 |
| 20260905112205 | 18 | 261 | 11.3 | 29.0 | 0.00 | 1.07 | 0.25 | 61 | 1017.5 |
| 20260905111705 | 18 | 224 | 9.7 | 29.0 | 0.00 | 1.07 | 0.25 | 62 | 1017.4 |
| 20260905111211 | 18 | 309 | 11.3 | 35.4 | 0.00 | 1.07 | 0.25 | 62 | 1018.0 |
| 20260905111205 | 18 | 263 | 12.9 | 35.4 | 0.00 | 1.07 | 0.25 | 62 | 1017.6 |
| 20260905110705 | 18 | 247 | 11.3 | 32.2 | 0.00 | 1.07 | 0.25 | 62 | 1017.7 |
| 20260905110211 | 18 | 212 | 12.9 | 29.0 | 0.00 | 1.07 | 0.25 | 63 | 1017.9 |
| 20260905110205 | 18 | 262 | 11.3 | 29.0 | 0.00 | 1.07 | 0.25 | 63 | 1017.5 |
| 20260905105705 | 18 | 262 | 9.7 | 20.9 | 0.00 | 1.07 | 0.25 | 65 | 1017.6 |
| 20260905105211 | 18 | 232 | 12.9 | 32.2 | 0.00 | 1.07 | 0.25 | 64 | 1018.0 |
| 20260905105205 | 18 | 256 | 14.5 | 29.0 | 0.00 | 1.07 | 0.25 | 64 | 1017.6 |
| 20260905104705 | 18 | 278 | 8.0 | 22.5 | 0.00 | 1.07 | 0.25 | 64 | 1017.6 |
| 20260905103705 | 18 | 218 | 11.3 | 33.8 | 0.00 | 1.07 | 0.25 | 64 | 1017.5 |
| 20260905103211 | 18 | 250 | 11.3 | 29.0 | 0.00 | 1.07 | 0.25 | 65 | 1018.0 |
| 20260905103206 | 18 | 269 | 9.7 | 29.0 | 0.00 | 1.07 | 0.25 | 65 | 1017.6 |
| 20260905101706 | 18 | 205 | 12.9 | 27.4 | 0.00 | 1.07 | 0.25 | 65 | 1017.5 |
| 20260905101211 | 18 | 281 | 11.3 | 22.5 | 0.00 | 1.07 | 0.25 | 66 | 1017.8 |
| 20260905101205 | 18 | 250 | 11.3 | 22.5 | 0.00 | 1.07 | 0.25 | 66 | 1017.4 |
| 20260905100705 | 17 | 252 | 8.0 | 24.1 | 0.00 | 1.07 | 0.25 | 66 | 1017.3 |
| 20260905095705 | 17 | 239 | 11.3 | 32.2 | 0.00 | 1.07 | 0.25 | 65 | 1017.3 |
| 20260905095211 | 17 | 224 | 16.1 | 30.6 | 0.00 | 1.07 | 0.25 | 66 | 1017.7 |
| 20260905095205 | 17 | 263 | 16.1 | 32.2 | 0.00 | 1.07 | 0.25 | 66 | 1017.3 |
| 20260905094705 | 17 | 258 | 12.9 | 27.4 | 0.00 | 1.07 | 0.25 | 68 | 1017.2 |
| 20260905094211 | 17 | 273 | 12.9 | 22.5 | 0.00 | 1.07 | 0.25 | 67 | 1017.6 |
| 20260905094205 | 17 | 237 | 12.9 | 22.5 | 0.00 | 1.07 | 0.25 | 67 | 1017.2 |
| 20260905093706 | 18 | 261 | 12.9 | 24.1 | 0.00 | 1.07 | 0.25 | 67 | 1017.2 |
| 20260905093211 | 18 | 247 | 9.7 | 25.7 | 0.00 | 1.07 | 0.25 | 67 | 1017.6 |
| 20260905093204 | 18 | 250 | 9.7 | 25.7 | 0.00 | 1.07 | 0.25 | 67 | 1017.1 |
| 20260905092211 | 18 | 200 | 11.3 | 27.4 | 0.00 | 1.07 | 0.25 | 66 | 1017.5 |
| 20260905092205 | 18 | 233 | 9.7 | 32.2 | 0.00 | 1.07 | 0.25 | 66 | 1017.1 |
| 20260905091705 | 18 | 223 | 12.9 | 32.2 | 0.00 | 1.07 | 0.25 | 66 | 1017.0 |
| 20260905091211 | 18 | 190 | 11.3 | 22.5 | 0.00 | 1.07 | 0.25 | 68 | 1017.5 |
| 20260905091205 | 17 | 242 | 9.7 | 22.5 | 0.00 | 1.07 | 0.25 | 68 | 1017.1 |
| 20260905090705 | 17 | 272 | 11.3 | 20.9 | 0.00 | 1.07 | 0.25 | 69 | 1017.1 |
| 20260905090211 | 17 | 204 | 8.0 | 20.9 | 0.00 | 1.07 | 0.25 | 70 | 1017.3 |
| 20260905090205 | 17 | 224 | 6.4 | 20.9 | 0.00 | 1.07 | 0.25 | 70 | 1017.0 |
| 20260905085211 | 17 | 248 | 11.3 | 24.1 | 0.00 | 1.07 | 0.25 | 70 | 1017.3 |
| 20260905085205 | 17 | 229 | 9.7 | 22.5 | 0.00 | 1.07 | 0.25 | 71 | 1017.0 |
| 20260905084705 | 17 | 225 | 9.7 | 29.0 | 0.00 | 1.07 | 0.25 | 71 | 1017.0 |
| 20260905084211 | 17 | 209 | 12.9 | 27.4 | 0.00 | 1.07 | 0.25 | 71 | 1017.2 |
| 20260905084205 | 17 | 228 | 14.5 | 27.4 | 0.00 | 1.09 | 0.25 | 71 | 1016.9 |
| 20260905083705 | 17 | 261 | 11.3 | 29.0 | 0.00 | 1.09 | 0.25 | 72 | 1016.9 |
| 20260905083211 | 17 | 212 | 12.9 | 30.6 | 0.00 | 1.07 | 0.25 | 72 | 1017.2 |
| 20260905083205 | 17 | 257 | 14.5 | 32.2 | 0.00 | 1.09 | 0.25 | 72 | 1016.9 |
| 20260905082705 | 17 | 291 | 9.7 | 32.2 | 0.00 | 1.09 | 0.25 | 74 | 1016.8 |
| 20260905082211 | 17 | 288 | 8.0 | 24.1 | 0.00 | 1.07 | 0.25 | 75 | 1017.1 |
| 20260905082205 | 17 | 236 | 8.0 | 24.1 | 0.00 | 1.09 | 0.25 | 75 | 1016.9 |
| 20260905081211 | 16 | 316 | 14.5 | 33.8 | 0.00 | 1.07 | 0.25 | 76 | 1017.0 |
| 20260905081204 | 16 | 262 | 11.3 | 33.8 | 0.00 | 1.09 | 0.25 | 77 | 1016.7 |
| 20260905080705 | 16 | 226 | 6.4 | 22.5 | 0.00 | 1.09 | 0.25 | 78 | 1016.8 |
| 20260905080211 | 16 | 251 | 14.5 | 29.0 | 0.00 | 1.07 | 0.25 | 77 | 1017.0 |
| 20260905080205 | 16 | 266 | 14.5 | 29.0 | 0.00 | 1.09 | 0.25 | 77 | 1016.7 |
| 20260905075706 | 16 | 272 | 9.7 | 19.3 | 0.00 | 1.09 | 0.25 | 78 | 1016.6 |
| 20260905075211 | 16 | 233 | 6.4 | 27.4 | 0.00 | 1.09 | 0.25 | 79 | 1017.0 |
| 20260905075204 | 16 | 201 | 6.4 | 27.4 | 0.00 | 1.09 | 0.25 | 79 | 1016.6 |
| 20260905074211 | 16 | 236 | 11.3 | 29.0 | 0.00 | 1.09 | 0.25 | 79 | 1016.8 |
| 20260905074206 | 16 | 244 | 12.9 | 29.0 | 0.00 | 1.09 | 0.25 | 79 | 1016.5 |
| 20260905073705 | 16 | 229 | 11.3 | 32.2 | 0.00 | 1.09 | 0.25 | 79 | 1016.4 |
| 20260905072704 | 16 | 223 | 9.7 | 29.0 | 0.00 | 1.09 | 0.25 | 81 | 1016.4 |
| 20260905072211 | 16 | 203 | 11.3 | 20.9 | 0.00 | 1.09 | 0.25 | 81 | 1016.8 |
| 20260905072205 | 16 | 227 | 9.7 | 19.3 | 0.00 | 1.09 | 0.25 | 81 | 1016.4 |
| 20260905071705 | 16 | 207 | 9.7 | 20.9 | 0.00 | 1.09 | 0.25 | 81 | 1016.4 |
| 20260905071211 | 16 | 196 | 6.4 | 19.3 | 0.00 | 1.09 | 0.25 | 82 | 1016.8 |
| 20260905071205 | 16 | 233 | 8.0 | 14.5 | 0.00 | 1.09 | 0.25 | 82 | 1016.4 |
| 20260905070705 | 16 | 253 | 9.7 | 22.5 | 0.00 | 1.09 | 0.25 | 83 | 1016.3 |
| 20260905070211 | 16 | 157 | 4.8 | 24.1 | 0.00 | 1.09 | 0.25 | 83 | 1016.7 |
| 20260905070205 | 16 | 232 | 4.8 | 24.1 | 0.00 | 1.09 | 0.25 | 83 | 1016.3 |
| 20260905065705 | 16 | 241 | 9.7 | 20.9 | 0.00 | 1.09 | 0.25 | 84 | 1016.3 |
| 20260905065211 | 15 | 192 | 6.4 | 22.5 | 0.00 | 1.09 | 0.25 | 84 | 1016.6 |
| 20260905065205 | 16 | 227 | 8.0 | 22.5 | 0.00 | 1.09 | 0.25 | 84 | 1016.3 |
| 20260905064705 | 15 | 239 | 3.2 | 16.1 | 0.00 | 1.09 | 0.25 | 85 | 1016.2 |
| 20260905064211 | 15 | 215 | 11.3 | 24.1 | 0.00 | 1.09 | 0.25 | 85 | 1016.5 |
| 20260905064205 | 15 | 249 | 11.3 | 24.1 | 0.00 | 1.09 | 0.25 | 85 | 1016.2 |
| 20260905063705 | 15 | 240 | 4.8 | 14.5 | 0.00 | 1.09 | 0.25 | 86 | 1016.1 |
| 20260905062704 | 15 | 245 | 4.8 | 12.9 | 0.00 | 1.09 | 0.25 | 88 | 1016.1 |
| 20260905062211 | 15 | 239 | 8.0 | 22.5 | 0.00 | 1.09 | 0.25 | 88 | 1016.4 |
| 20260905062205 | 15 | 250 | 8.0 | 22.5 | 0.00 | 1.09 | 0.25 | 88 | 1016.0 |
| 20260905061704 | 15 | 244 | 4.8 | 12.9 | 0.00 | 1.09 | 0.25 | 89 | 1016.0 |
| 20260905061210 | 15 | 238 | 4.8 | 19.3 | 0.00 | 1.09 | 0.25 | 89 | 1016.3 |
| 20260905061205 | 15 | 276 | 6.4 | 19.3 | 0.00 | 1.09 | 0.25 | 89 | 1016.1 |
| 20260905060705 | 15 | 250 | 4.8 | 11.3 | 0.00 | 1.09 | 0.25 | 90 | 1016.0 |
| 20260905060211 | 15 | 16 | 8.0 | 24.1 | 0.00 | 1.09 | 0.25 | 90 | 1016.2 |
| 20260905060205 | 15 | 250 | 3.2 | 24.1 | 0.00 | 1.09 | 0.25 | 90 | 1015.9 |
| 20260905055705 | 15 | 248 | 4.8 | 12.9 | 0.00 | 1.09 | 0.25 | 91 | 1015.9 |
| 20260905055211 | 14 | 234 | 4.8 | 22.5 | 0.00 | 1.09 | 0.25 | 91 | 1016.2 |
| 20260905055205 | 14 | 247 | 4.8 | 16.1 | 0.00 | 1.09 | 0.25 | 91 | 1015.8 |
| 20260905054705 | 14 | 270 | 6.4 | 22.5 | 0.00 | 1.09 | 0.25 | 91 | 1015.8 |
| 20260905054210 | 14 | 244 | 3.2 | 14.5 | 0.00 | 1.09 | 0.25 | 91 | 1015.9 |
| 20260905054205 | 14 | 204 | 3.2 | 14.5 | 0.00 | 1.09 | 0.25 | 91 | 1015.7 |
| 20260905053705 | 14 | 270 | 4.8 | 11.3 | 0.00 | 1.09 | 0.25 | 91 | 1015.7 |
| 20260905053211 | 14 | 277 | 4.8 | 12.9 | 0.00 | 1.09 | 0.25 | 92 | 1016.0 |
| 20260905053205 | 14 | 246 | 4.8 | 12.9 | 0.00 | 1.09 | 0.25 | 92 | 1015.7 |
| 20260905052705 | 13 | 299 | 6.4 | 11.3 | 0.00 | 1.09 | 0.25 | 92 | 1015.6 |
| 20260905051705 | 13 | 245 | 3.2 | 4.8 | 0.00 | 1.09 | 0.25 | 92 | 1015.4 |
| 20260905051210 | 13 | 267 | 3.2 | 9.7 | 0.00 | 1.09 | 0.25 | 91 | 1015.8 |
| 20260905051204 | 13 | 267 | 4.8 | 9.7 | 0.00 | 1.09 | 0.25 | 91 | 1015.3 |
| 20260905045704 | 13 | 263 | 1.6 | 4.8 | 0.00 | 1.09 | 0.25 | 91 | 1015.2 |
| 20260905043704 | 13 | 281 | 4.8 | 8.0 | 0.00 | 1.09 | 0.25 | 90 | 1014.9 |
| 20260905043210 | 13 | 238 | 4.8 | 8.0 | 0.03 | 1.09 | 0.25 | 91 | 1015.6 |
| 20260905043204 | 13 | 238 | 4.8 | 8.0 | 0.03 | 1.09 | 0.25 | 91 | 1015.0 |
| 20260905042705 | 13 | 225 | 1.6 | 12.9 | 0.03 | 1.09 | 0.25 | 91 | 1014.9 |
| 20260905042211 | 14 | 245 | 3.2 | 16.1 | 0.03 | 1.09 | 0.25 | 90 | 1015.7 |
| 20260905042205 | 14 | 259 | 1.6 | 11.3 | 0.03 | 1.09 | 0.25 | 90 | 1014.9 |
| 20260905041211 | 14 | 243 | 3.2 | 12.9 | 0.03 | 1.09 | 0.25 | 91 | 1015.6 |
| 20260905041205 | 14 | 264 | 1.6 | 12.9 | 0.03 | 1.09 | 0.25 | 91 | 1014.8 |
| 20260905040705 | 14 | 253 | 4.8 | 16.1 | 0.03 | 1.09 | 0.25 | 90 | 1014.6 |
| 20260905035705 | 14 | 254 | 6.4 | 16.1 | 0.03 | 1.09 | 0.25 | 90 | 1014.4 |
| 20260905035210 | 14 | 286 | 6.4 | 19.3 | 0.03 | 1.09 | 0.25 | 90 | 1015.2 |
| 20260905035205 | 15 | 257 | 8.0 | 19.3 | 0.03 | 1.09 | 0.25 | 90 | 1014.4 |
| 20260905034704 | 15 | 264 | 4.8 | 16.1 | 0.03 | 1.09 | 0.25 | 90 | 1014.4 |
| 20260905034210 | 15 | 247 | 8.0 | 22.5 | 0.03 | 1.09 | 0.25 | 90 | 1015.1 |
| 20260905034205 | 15 | 284 | 9.7 | 22.5 | 0.03 | 1.09 | 0.25 | 90 | 1014.3 |
| 20260905033704 | 15 | 207 | 9.7 | 29.0 | 0.03 | 1.09 | 0.25 | 91 | 1014.2 |
| 20260905033210 | 15 | 234 | 8.0 | 17.7 | 0.00 | 1.07 | 0.23 | 90 | 1014.8 |
| 20260905033205 | 15 | 246 | 8.0 | 19.3 | 0.00 | 1.07 | 0.23 | 90 | 1014.0 |
| 20260905032705 | 15 | 268 | 6.4 | 12.9 | 0.00 | 1.07 | 0.23 | 91 | 1014.0 |
| 20260905032210 | 15 | 306 | 11.3 | 22.5 | 0.00 | 1.07 | 0.23 | 91 | 1014.8 |
| 20260905032204 | 15 | 288 | 9.7 | 22.5 | 0.00 | 1.07 | 0.23 | 91 | 1014.0 |
| 20260905031705 | 15 | 277 | 6.4 | 12.9 | 0.00 | 1.07 | 0.23 | 91 | 1014.0 |
| 20260905031210 | 15 | 350 | 3.2 | 16.1 | 0.00 | 1.07 | 0.23 | 91 | 1014.8 |
| 20260905031204 | 15 | 285 | 4.8 | 11.3 | 0.00 | 1.07 | 0.23 | 91 | 1014.0 |
| 20260905030704 | 15 | 266 | 4.8 | 16.1 | 0.00 | 1.07 | 0.23 | 91 | 1014.0 |
| 20260905030210 | 15 | 294 | 3.2 | 12.9 | 0.00 | 1.07 | 0.23 | 91 | 1014.7 |
| 20260905030204 | 15 | 266 | 3.2 | 9.7 | 0.00 | 1.07 | 0.23 | 91 | 1013.9 |
| 20260905025704 | 15 | 220 | 6.4 | 16.1 | 0.00 | 1.07 | 0.23 | 91 | 1013.9 |
| 20260905025210 | 15 | 255 | 4.8 | 17.7 | 0.00 | 1.07 | 0.23 | 91 | 1014.7 |
| 20260905025205 | 15 | 267 | 6.4 | 19.3 | 0.00 | 1.07 | 0.23 | 91 | 1013.9 |
| 20260905024704 | 15 | 232 | 4.8 | 14.5 | 0.00 | 1.07 | 0.23 | 91 | 1013.9 |
| 20260905024210 | 15 | 247 | 8.0 | 17.7 | 0.00 | 1.07 | 0.23 | 91 | 1014.7 |
| 20260905024205 | 15 | 251 | 6.4 | 19.3 | 0.00 | 1.07 | 0.23 | 91 | 1013.8 |